SCP
1 1 1 1 1 1 1 1 1 1 1 1 1 1 1 1 1 1 1 2 2 2 2 1 1 1 1 1 1 1 1 0 1 1 1 1 1 1 1 1 1 1 1
2 1 1 1 1 1 1 1 1 1 1 1 1 1 1 1 1 1 1 2 2 2 2 2 2 1 1 1 1 1 1 1 1 1 1 1 1 1 1 1 1 1 1
3 2 2 2 1 1 1 1 1 1 1 1 1 0 0 1 1 1 1 2 2 2 2 2 2 2 2 1 1 1 1 1 1 1 1 1 1 1 1 1 1 1 1
4 4 3 3 2 2 2 1 1 1 1 1 1 1 1 1 1 1 1 1 1 1 1 1 2 2 1 1 1 1 1 1 1 1 1 1 1 1 1 1 1 1 1
5 5 5 4 4 3 2 2 1 1 1 1 1 1 1 1 1 1 1 1 1 1 1 1 1 1 1 1 1 1 1 1 1 1 1 1 1 0 0 1 1 1 1
5 6 6 6 6 5 3 2 2 2 2 2 1 1 1 1 0 1 1 1 1 1 1 1 1 1 1 1 1 1 1 1 1 1 1 0 0 0 0 0 1 1 1
5 6 7 7 7 6 5 3 2 2 2 2 2 1 1 0 0 0 1 1 1 1 1 1 1 1 1 1 1 1 1 1 1 1 1 0 0 0 0 0 0 1 1
4 5 7 7 6 5 4 3 2 2 2 2 1 1 1 1 0 0 0 1 1 1 1 1 1 1 1 1 1 1 1 1 1 0 0 0 0 0 0 0 0 1 1
3 4 5 5 4 3 3 2 2 2 1 1 1 1 1 1 1 1 0 0 0 1 1 1 1 2 1 1 1 1 0 0 0 0 0 0 0 1 1 0 0 1 1
2 3 3 3 2 2 2 1 1 1 1 1 1 1 1 1 1 1 1 1 1 0 0 1 1 1 1 1 1 0 0 0 0 0 0 1 1 1 1 1 1 1 1
2 2 2 1 2 3 2 2 1 1 1 1 1 1 1 1 1 1 1 1 1 1 0 0 0 1 0 0 0 0 0 0 0 0 0 1 1 1 1 1 1 1 1
4 3 2 1 2 3 3 3 2 1 1 1 1 1 1 1 1 1 2 2 2 1 0 0 0 0 0 0 0 0 0 0 0 0 1 1 1 1 1 1 1 1 1
5 4 3 2 2 2 4 4 3 2 1 1 1 1 1 1 1 1 2 2 2 1 1 0 0 0 0 0 0 0 0 0 0 0 1 1 0 1 1 1 1 1 1
5 4 4 3 2 3 5 5 4 2 2 1 1 1 1 1 1 1 1 2 2 2 1 1 0 0 0 0 0 0 0 0 0 0 0 0 0 0 0 1 1 1 1
5 5 4 4 3 4 5 5 4 3 2 2 1 1 1 1 1 1 1 2 2 2 2 1 1 0 0 0 0 0 0 0 0 0 0 0 0 0 0 0 1 1 1
6 5 5 4 4 5 5 4 4 3 3 2 2 2 1 1 1 1 1 1 2 2 2 1 1 0 0 0 0 0 0 0 0 0 0 0 0 0 0 0 0 0 0
5 4 4 4 4 4 4 4 3 3 3 2 2 2 1 1 1 1 1 1 2 2 2 2 1 0 0 0 0 0 0 0 0 0 0 0 0 0 0 0 0 0 0
5 4 4 3 3 3 3 3 3 3 3 2 2 2 1 1 1 1 1 1 2 2 2 2 1 0 0 0 0 0 0 0 0 0 0 0 0 0 0 0 0 0 0
5 4 4 4 3 3 3 3 3 3 3 2 2 2 1 1 1 1 1 1 2 2 2 2 1 0 0 0 0 0 0 0 0 0 0 0 0 0 0 0 0 0 0
4 4 4 4 3 3 3 3 3 3 3 2 2 1 1 1 1 1 1 2 2 2 2 1 0 0 0 0 0 0 0 0 0 0 0 0 0 0 0 0 0 0 0
3 3 3 3 3 2 2 2 2 2 2 2 1 1 1 1 1 1 1 2 2 2 1 1 0 0 0 0 0 0 0 0 0 0 0 0 0 0 0 0 0 0 0
2 2 2 2 2 2 1 1 1 1 1 1 1 1 1 1 1 1 1 1 1 1 1 0 0 0 0 0 0 0 0 0 0 0 0 0 0 0 0 0 0 0 0
1 1 1 2 2 2 1 1 1 1 1 1 1 1 1 1 1 1 1 1 1 1 0 0 0 0 0 0 0 0 0 0 0 0 0 0 0 0 0 0 0 0 0
1 1 1 1 1 1 1 1 0 1 1 1 1 1 1 2 2 2 1 1 0 0 0 0 0 0 0 0 0 0 0 0 0 0 0 0 0 0 0 0 0 0 0
1 1 1 1 1 1 1 0 0 0 0 1 1 1 1 2 2 2 1 1 1 0 0 0 0 0 0 0 0 0 0 0 0 0 0 0 0 0 0 0 0 0 0
2 1 1 1 0 0 0 0 0 0 0 1 1 1 1 2 2 2 1 1 1 0 0 0 0 0 0 0 0 0 0 0 0 0 0 0 0 0 0 0 0 0 0
Wind_Speed
2 1 1 1 1 1 1 1 1 1 1 1 1 2 2 3 3 2 2 7 8 8 8 8 8 8 8 8 7 7 6 6 6 6 6 5 5 5 5 5 4 4 4
2 2 2 1 1 1 1 2 2 1 1 1 1 1 2 3 2 3 2 4 7 7 6 6 7 7 7 7 7 6 6 6 5 5 6 5 5 5 4 4 4 4 3
2 2 2 1 1 1 1 2 2 2 2 2 2 1 1 2 3 3 3 2 3 5 6 6 6 7 7 6 6 6 6 5 5 5 6 5 5 4 4 3 3 3 3
3 2 2 1 1 1 2 2 2 2 2 1 1 1 1 1 2 2 3 3 2 2 4 6 6 6 7 7 7 6 6 6 5 5 5 5 5 5 4 3 3 3 2
3 3 2 1 1 2 2 2 2 2 1 1 1 1 0 0 1 2 3 3 3 2 2 5 6 6 7 7 7 7 7 6 6 6 6 5 5 5 4 4 3 3 2
3 3 2 1 2 2 2 2 2 1 1 1 1 1 1 0 0 1 2 2 3 4 3 3 2 3 6 6 6 7 7 7 7 7 6 5 5 4 4 4 3 3 3
2 3 2 1 2 2 2 2 2 2 1 1 2 2 3 2 1 0 1 1 2 3 3 3 2 2 2 5 7 7 7 7 7 7 6 6 5 5 5 5 5 4 3
2 3 2 2 2 2 2 2 2 2 1 1 2 2 2 3 3 2 0 1 2 2 3 5 4 4 3 2 5 8 7 7 7 7 7 6 5 6 6 5 5 5 4
2 2 2 2 2 2 2 1 2 3 1 0 1 3 2 2 2 3 1 0 1 1 2 2 3 4 4 3 3 6 8 7 7 7 7 6 5 5 5 6 6 6 5
2 2 2 2 2 2 2 1 1 2 2 1 0 0 2 3 2 2 3 2 2 2 2 2 2 3 3 3 5 7 9 8 8 8 7 6 6 6 6 6 5 6 6
1 1 2 1 2 1 1 1 1 1 2 2 1 0 0 0 1 2 2 3 2 2 1 2 2 2 3 3 4 6 9 9 8 8 8 7 7 7 6 6 6 6 5
1 1 1 1 2 1 1 1 1 2 2 2 1 1 2 1 2 2 2 2 2 2 2 1 1 2 2 3 5 7 9 9 8 8 8 7 7 7 7 7 6 6 6
1 2 1 1 1 2 2 1 1 1 1 1 1 1 1 2 2 2 2 1 2 2 2 1 1 1 2 2 2 6 7 9 8 8 8 8 7 7 7 7 6 6 5
2 2 2 2 2 2 2 2 1 2 1 1 1 1 1 1 1 2 3 2 0 2 2 2 1 1 1 2 2 5 4 8 8 8 8 8 7 7 7 7 6 6 5
1 1 2 2 2 2 2 2 1 2 1 1 1 1 1 1 1 1 2 3 3 1 2 2 2 2 1 1 2 2 2 5 7 8 8 8 7 7 7 6 5 5 4
1 1 2 2 2 2 2 2 1 2 1 1 1 1 1 1 1 1 1 2 2 3 2 2 2 2 1 1 2 2 2 4 5 6 6 6 6 6 6 6 5 5 4
1 2 2 2 2 2 2 2 2 2 2 2 1 1 2 2 1 1 1 1 1 2 2 2 1 1 1 1 0 1 0 1 1 4 5 5 5 5 5 5 6 5 5
2 2 2 2 2 2 2 3 3 3 2 2 2 1 2 2 1 1 1 1 1 2 2 2 2 1 1 1 1 1 1 1 1 2 4 4 4 3 4 4 5 5 5
1 1 1 2 2 2 2 2 3 3 3 2 2 2 2 1 2 1 1 1 1 1 1 2 2 1 1 0 1 0 1 1 1 1 2 2 2 2 2 3 4 5 5
1 1 2 2 2 2 2 2 2 2 2 2 2 3 3 2 3 2 1 1 1 1 1 1 1 1 1 0 1 0 1 1 1 1 0 1 1 1 2 3 4 5 5
1 2 2 2 2 2 2 2 2 2 2 2 2 2 3 3 4 3 2 2 2 1 1 1 1 1 1 0 1 1 1 1 1 1 0 1 1 1 2 3 4 5 5
1 1 2 2 2 2 1 2 2 1 2 2 3 3 3 3 3 3 4 4 4 3 3 2 2 2 3 2 2 2 1 1 1 1 1 1 0 1 2 2 4 5 5
1 2 2 2 2 2 3 3 3 2 2 2 3 3 3 3 3 2 3 3 4 5 6 5 4 4 4 4 3 2 2 2 3 2 1 1 1 1 2 3 4 5 5
2 2 3 2 1 3 4 4 4 2 2 3 3 3 3 3 3 3 2 2 3 3 5 4 5 5 5 4 4 4 4 2 1 1 2 1 1 1 2 2 3 4 4
2 3 2 2 2 4 4 4 3 2 2 3 3 3 2 3 4 4 2 2 3 4 4 4 5 6 6 5 4 2 2 2 1 2 1 2 1 1 1 2 2 3 3
3 2 2 3 3 4 4 4 3 2 2 3 3 3 3 3 3 3 3 3 3 4 2 2 2 2 3 3 4 4 4 3 2 2 2 2 1 1 1 2 1 1 1
Wind_Direction
145 155 163 148 167 151 145 142 128 117 120 109 117 119 134 150 152 155 166 171 173 173 171 174 177 180 182 184 186 187 189 190 191 186 179 177 175 178 183 182 183 188 194
138 135 131 137 142 142 149 145 145 137 126 114 94 103 124 130 151 160 171 174 170 167 171 178 179 182 181 179 181 185 186 185 182 181 177 173 173 174 184 186 184 191 196
132 126 120 118 123 112 110 107 102 95 97 86 80 97 126 133 153 165 167 168 173 180 182 184 183 184 186 184 181 180 179 178 176 176 175 174 170 166 165 174 185 193 196
127 119 113 111 103 99 103 107 92 85 81 78 73 81 128 153 159 164 168 174 175 185 192 193 192 192 192 189 189 189 188 186 185 184 180 180 177 172 171 170 176 182 191
115 115 120 127 115 101 97 111 96 112 113 96 121 111 108 122 179 172 174 180 175 181 202 203 198 200 200 195 195 196 194 190 187 184 182 182 182 182 184 185 183 189 197
121 115 119 112 112 104 88 88 98 95 115 129 82 51 360 332 170 173 188 183 180 188 195 201 205 211 205 201 201 198 198 196 194 191 193 194 193 193 196 199 200 204 210
123 125 131 122 111 111 117 116 111 85 65 77 68 23 357 349 346 206 188 165 184 192 186 193 205 218 205 201 204 202 205 204 201 200 202 200 199 202 204 210 213 217 217
126 137 135 145 128 106 100 99 102 98 62 77 111 86 9 348 337 334 301 180 197 194 193 199 199 206 207 207 201 200 207 209 209 207 208 203 204 210 214 212 214 218 221
137 127 140 138 119 117 133 141 131 131 141 46 124 137 144 226 302 320 312 262 215 202 215 206 196 205 204 206 218 211 205 205 210 210 209 207 210 212 216 217 218 221 224
151 149 148 146 134 132 140 185 155 143 135 142 337 149 169 161 163 304 319 308 265 230 232 221 197 202 204 203 217 214 208 206 209 211 213 210 212 216 220 220 223 228 227
184 171 159 151 138 146 156 176 154 147 144 148 162 179 100 98 145 168 273 306 315 287 257 243 217 205 205 206 209 211 204 206 209 212 212 211 215 218 222 225 229 232 232
220 212 159 166 162 159 162 189 198 169 163 158 166 153 158 169 190 178 212 254 275 286 282 255 226 224 214 208 216 206 200 204 208 211 208 209 217 223 227 231 234 236 240
226 225 190 192 191 190 188 183 195 201 182 167 186 190 185 192 179 166 168 223 260 290 312 302 259 245 225 208 223 207 205 208 209 210 212 215 220 227 228 230 235 236 239
221 213 198 198 200 200 208 189 197 219 197 190 213 196 199 224 184 172 173 169 236 308 308 280 293 268 241 205 229 215 215 213 212 212 217 221 223 229 229 230 231 233 234
217 198 203 202 204 202 205 183 198 222 210 204 221 212 222 245 207 204 183 168 165 207 266 266 270 266 248 214 223 217 209 213 214 215 217 223 226 226 225 225 227 228 233
220 191 218 220 211 199 194 182 205 218 197 218 208 195 253 255 251 227 198 180 167 172 227 255 245 253 241 239 224 213 215 216 218 213 212 217 221 221 221 218 218 219 226
205 199 213 215 213 215 207 199 217 210 205 235 244 207 258 259 252 257 219 186 186 168 209 265 273 273 212 230 311 300 256 203 221 215 210 214 220 224 226 221 216 216 221
211 209 206 209 222 222 208 201 221 216 202 214 236 226 257 262 262 256 241 222 215 195 186 226 272 281 253 218 176 222 249 209 211 222 214 210 210 216 224 221 219 219 226
216 228 209 220 233 231 223 218 214 210 202 212 219 224 239 230 255 256 250 243 231 214 181 177 241 254 273 240 70 314 319 346 266 242 201 192 197 213 230 225 223 225 231
207 228 228 230 232 221 217 219 204 190 204 217 220 225 226 215 228 234 235 233 211 200 189 169 215 253 261 259 111 159 313 304 279 286 55 213 226 235 251 243 232 232 235
248 236 234 237 232 214 216 209 213 207 208 228 242 243 244 238 225 218 219 211 195 199 193 184 206 236 249 207 208 214 220 263 289 254 336 293 285 280 273 259 244 234 236
282 272 258 236 235 249 247 219 206 228 228 229 240 251 259 248 244 242 240 225 205 200 199 195 203 214 232 217 205 203 190 157 274 265 167 278 202 249 263 250 242 235 234
269 276 272 253 242 255 253 238 217 217 240 244 243 246 256 255 246 245 249 244 244 239 212 195 204 219 217 212 195 199 196 196 218 224 162 251 249 251 264 263 248 235 231
256 259 264 262 259 268 257 246 240 234 250 255 245 238 235 250 246 221 226 246 255 256 239 217 212 225 222 212 196 194 194 195 250 264 162 198 253 256 283 288 272 242 232
257 257 256 241 249 272 266 264 247 242 256 266 256 242 227 234 252 233 210 236 268 279 262 243 231 234 231 218 192 155 154 147 225 270 213 167 230 282 300 291 288 262 246
240 249 247 237 239 259 274 268 243 228 257 271 279 268 243 236 249 234 210 213 243 262 268 290 291 281 235 225 208 186 182 178 183 234 232 166 193 137 314 303 308 316 292